Regional Weather Roundup
Issued by NWS Jackson, KY

Home | Current Version | Previous Version | Graphics & Text | Print | Product List | Glossary On
Versions: 1 2 3 4 5 6 7 8 9 10 11 12 13 14 15 16 17 18 19 20 21 22 23 24 25 26 27 28 29 30 31 32 33 34 35 36 37 38 39 40 41 42 43 44 45 46 47 48 49 50
000
ASUS43 KJKL 220310
RWRJKL

EAST KENTUCKY HOURLY WEATHER ROUNDUP
NATIONAL WEATHER SERVICE JACKSON KY
1100 PM EDT SAT APR 21 2018

NOTE: "FAIR" INDICATES FEW OR NO CLOUDS BELOW 12,000 FEET WITH
NO SIGNIFICANT WEATHER AND/OR OBSTRUCTIONS TO VISIBILITY.

* THESE REPORTS ARE NOT UNDER NWS QUALITY CONTROL AND MAY NOT
  REPORT WEATHER SUCH AS PRECIPITATION AND FOG.

KYZ079-080-083-085-087-088-110-112-115-119-120-220400
...EASTERN KENTUCKY...

CITY           SKY/WX    TMP DP  RH WIND       PRES   REMARKS
JACKSON          N/A     59  20  22 VRB5      30.27S
LONDON           N/A     58  28  32 NE6       30.25S
SOMERSET*        N/A     55  32  41 MISG      30.25S
MONTICELLO*      N/A     51  39  63 VRB7      30.26R
WILLIAMSBURG*    N/A     54  34  47 N5        30.24F
MIDDLESBORO*     N/A     50  41  70 CALM      30.26S
HARLAN APT*      N/A     55  35  47 CALM      30.26S
PIKE CO APT*     N/A     58  23  26 N8        30.27F
BIG SANDY APT*   N/A     57  23  26 NE8       30.29S
MOREHEAD APT*    N/A     57  16  19 E6G13     30.31R
ASHLAND*         N/A     56  23  27 E3        30.31S
$$

KYZ035-036-041-042-044-050-067-078-099-220400
...CENTRAL KENTUCKY...

CITY           SKY/WX    TMP DP  RH WIND       PRES   REMARKS
MT STERLING*     N/A     52  32  46 NE6       30.30S
FLEMING/MASON*   N/A     52  28  40 NE8       30.32S
DANVILLE*        N/A     54  32  43 CALM      30.27S
LEXINGTON        N/A     53  31  42 NE13      30.28R
FRANKFORT        N/A     57  26  30 NE9       30.28R
LOUISVILLE     CLOUDY    59  28  30 NE8       30.28R
GLASGOW*         N/A     59  36  42 NE6       30.23S
BOWLING GREEN    N/A     56  40  55 CALM      30.23R
$$

KYZ091>093-OHZ055-061-077-WVZ005-015-034-035-042-220400
...SOUTHERN OHIO/WEST VIRGINIA...

CITY           SKY/WX    TMP DP  RH WIND       PRES   REMARKS
COVINGTON      CLOUDY    54  21  27 NE12      30.32F
COLUMBUS       CLOUDY    52  21  29 NE7       30.36R
DAYTON         CLOUDY    47  28  47 NE9       30.36F
WILMINGTON       N/A     47  32  56 NE10      30.34R
HUNTINGTON       N/A    N/A N/A N/A MISG      30.30S
CHARLESTON       N/A     57  20  23 NE5       30.30R
PINEVILLE*       N/A     48  35  59 MISG      30.33S
BECKLEY          N/A     54  19  25 NE5       30.31R
BLUEFIELD        N/A     54  26  34 S8        30.31R
LOGAN CO APT*    N/A     59  18  20 NE5       30.28S
$$

VAZ002-007-008-TNZ017-027-036-066-071-220400
...SOUTHWEST VIRGINIA/EAST TENNESSEE...

CITY           SKY/WX    TMP DP  RH WIND       PRES   REMARKS
WISE*            N/A     59  28  31 NE3       30.30S
JONESVILLE*      N/A     48  37  66 CALM      30.28R
ABINGDON*        N/A     60  29  30 CALM      30.28S
BRISTOL        MOCLDY    55  36  48 CALM      30.28R
MORRISTOWN*    PTCLDY    57  36  44 CALM      30.25R
SEVIERVILLE*   CLEAR     54  39  58 CALM      30.25S
KNOXVILLE      MOCLDY    56  40  55 S3        30.24R
LAFOLLETTE*    CLEAR     52  41  66 CALM      30.28S
OAK RIDGE        N/A     55  41  59 CALM      30.25S
CROSSVILLE       N/A     57  31  37 S5        30.26S
NASHVILLE      MOCLDY    60  38  43 CALM      30.21R
$$

...KEY TO REMARKS...
VSB - VISIBILITY IN MILES
WCI - WIND CHILL INDEX
HX  - HEAT INDEX

$$



USA.gov is the U.S. government's official web portal to all federal, state and local government web resources and services.